Hurghada, Egypt

2:52 PM EET on May 23, 2017 (GMT +0200)
Hurghada

Weather History for HEGN - June, 2012

Change the Weather History Date:

Tuesday, June 19, 2012

  Actual Average Record
Temperature  
Mean Temperature 93 °F -  
Max Temperature 102 °F 95 °F 107 °F (2015)
Min Temperature 84 °F 80 °F 73 °F (2006)
Cooling Degree Days 28    
Growing Degree Days 43 (Base 50)    
Moisture  
Dew Point 60 °F    
Average Humidity 32    
Maximum Humidity 52    
Minimum Humidity 10    
Precipitation  
Precipitation 0.00 in - - ()
Sea Level Pressure  
Sea Level Pressure 29.62 in    
Wind  
Wind Speed 16 mph ()    
Max Wind Speed 32 mph    
Max Gust Speed -    
Visibility 4.9 miles    
Events      
Averages and records for this station are not official NWS values.
T = Trace of Precipitation, MM = Missing Value Source: Averaged Metar Reports

Daily Weather History Graph

Daily Weather History Graph

Search for Another Location

Airport or City:

Trip Planner

Search our weather history database for the weather conditions in past years. The results will help you decide how hot, cold, wet, or windy it might be!

Date:

Astronomy

Jun. 19, 2012 Rise Set
Actual Time 4:50 AM EET 6:42 PM EET
Civil Twilight 4:24 AM EET 7:08 PM EET
Nautical Twilight 3:52 AM EET 7:40 PM EET
Astronomical Twilight 3:18 AM EET 8:14 PM EET
Moon 4:34 AM EET (6/19) 6:35 PM EET (6/19)
Length of Visible Light 14h 44m
Length of Day
13h 51m
Waning Crescent, 0% of the Moon is Illuminated
Jun 19
Waning Crescent
Jun 19
New
Jun 27
First Quarter
Jul 3
Full
Jul 11
Last Quarter

Hourly Weather History & Observations

Time (EET) Temp. Heat Index Dew Point Humidity Pressure Visibility Wind Dir Wind Speed Gust Speed Precip Events Conditions
12:00 AM 93.2 °F 92.6 °F 59.0 °F 32% 29.65 in - North 13.8 mph - N/A   Clear
1:00 AM 91.4 °F 92.1 °F 62.6 °F 38% 29.65 in - North 18.4 mph - N/A   Clear
2:00 AM 90 °F - 65 °F 33% 29.64 in 6 mi North 17.3 mph - -  
2:00 AM 89.6 °F 91.1 °F 64.4 °F 43% 29.62 in - North 17.3 mph - N/A   Clear
3:00 AM 89.6 °F 88.1 °F 57.2 °F 33% 29.62 in - NW 15.0 mph - N/A   Clear
4:00 AM 86.0 °F 87.3 °F 64.4 °F 48% 29.62 in - NNW 12.7 mph - N/A   Clear
5:00 AM 84.2 °F 82.8 °F 53.6 °F 35% 29.65 in - NW 6.9 mph - N/A   Clear
6:00 AM 87.8 °F 91.4 °F 68.0 °F 52% 29.65 in - NNW 13.8 mph - N/A   Clear
7:00 AM 93.2 °F 94.9 °F 64.4 °F 38% 29.65 in - NNW 18.4 mph - N/A   Clear
8:00 AM 95 °F - 67 °F 31% 29.66 in 6 mi North 19.6 mph - -  
8:00 AM 95.0 °F 99.5 °F 68.0 °F 41% 29.65 in - North 19.6 mph - N/A   Clear
9:00 AM 95.0 °F 104.5 °F 73.4 °F 49% 29.65 in - North 19.6 mph - N/A   Clear
10:00 AM 96.8 °F 105.1 °F 71.6 °F 44% 29.65 in 5.0 mi North 29.9 mph - N/A   Unknown
11:00 AM 96.8 °F 105.1 °F 71.6 °F 44% 29.65 in 3.7 mi North 32.2 mph - N/A   Unknown
12:00 PM 98.6 °F 104.1 °F 68.0 °F 37% 29.65 in 3.7 mi North 27.6 mph - N/A   Unknown
1:00 PM 102.2 °F 104.2 °F 62.6 °F 27% 29.62 in 3.7 mi North 28.8 mph - N/A   Unknown
2:00 PM 100.4 °F 99.7 °F 57.2 °F 24% 29.59 in 5.0 mi North 19.6 mph - N/A   Unknown
3:00 PM 100.4 °F 99.7 °F 57.2 °F 24% 29.59 in 5.0 mi North 20.7 mph - N/A   Unknown
4:00 PM 98.6 °F 99.4 °F 60.8 °F 29% 29.59 in - North 15.0 mph - N/A   Clear
5:00 PM 100.4 °F 99.7 °F 57.2 °F 24% 29.56 in - North 20.7 mph - N/A   Clear
6:00 PM 96.8 °F 95.1 °F 55.4 °F 25% 29.56 in - North 17.3 mph - N/A   Clear
7:00 PM 95.0 °F 94.4 °F 59.0 °F 30% 29.59 in - North 17.3 mph - N/A   Clear
8:00 PM 96 °F - 46 °F 10% 29.60 in 6 mi NNW 20.7 mph - -  
8:00 PM 96.8 °F - 48.2 °F 19% 29.59 in - North 12.7 mph - N/A   Clear
9:00 PM 96.8 °F - 46.4 °F 18% 29.62 in - NNW 20.7 mph - N/A   Clear
10:00 PM 91.4 °F - 37.4 °F 15% 29.65 in - WNW 6.9 mph - N/A   Clear
11:00 PM 91.4 °F 89.1 °F 53.6 °F 28% 29.65 in - NW 12.7 mph - N/A   Clear